Location: *
(50.3194°N, 7.1067°E)
Time: 01:36:23
(UTC+00:00)

CZ-2D R/B - Pass Details

Date: 22 September 2019
Orbit: 523 x 538 km, 97.4° (Epoch: 18 October)

Event Time Altitude Azimuth Distance (km) Brightness Sun altitude
Rises 18:07:54 0° 163° (SSE) 2,643 6.5 -6.8°
Reaches altitude 10° 18:10:00 10° 162° (SSE) 1,759 5.6 -7.1°
Maximum altitude 18:13:47 82° 76° (ENE) 537 3.2 -7.7°
Drops below altitude 10° 18:17:37 10° 349° (NNW) 1,777 6.2 -8.3°
Sets 18:19:44 0° 348° (NNW) 2,673 7.1 -8.6°
